Notices

What's New in latest Release from April 7th, 2021:

- Updated Glossary, including Speed of Maximum Gust, and Total Hourly Precipitation

- Updated national and regional climate services offices contacts and prices information

- Addition of station inventory lists for 1981-2010, 1971-2000, and 1961-1990 Normals.

If you haven't already, please take our survey and provide feedback about our website: https://eccc.sondage-survey.ca/f/LanguageSelection.aspx?s=442ca660-fcf1-47c0-95a9-59707d6fd709

Hourly Data Report for October 05, 2004

SHERBROOKE A
QUEBEC

45°26'00.000" N
71°41'00.000" W
241.40 m
7028124
71610
YSC

Download Data

Hourly Data (October 2004)
Hourly Data Report for October 5, 2004
TIME
LST
Temp Definition
°C
Dew Point Definition
°C
Rel Hum Definition
%
Precip. Amount Definition
mm

Wind Dir Definition
10's deg

Wind Spd Definition
km/h
Visibility Definition
km
Stn Press Definition
kPa
Hmdx Definition


Wind Chill Definition


Weather Definition


00:00 3.8 2.6 92   28 6 15.0 99.24     Rain
01:00 3.7 2.0 89   32 13 15.0 99.26      
02:00 1.9 0.1 88   33 6 15.0 99.29      
03:00 1.3 -0.8 86   32 9 15.0 99.34      
04:00 0.5 -1.3 88   32 9 15.0 99.38      
05:00 -0.2 -2.5 84   32 7 15.0 99.45   -3  
06:00 -0.8 -3.2 84   34 4 15.0 99.56   -2  
07:00 0.2 -2.9 80     0 24.1 99.62     Mostly Cloudy
08:00 1.4 -2.1 77   29 17 24.1 99.71     Mostly Cloudy
09:00 2.1 -3.1 68   30 17 24.1 99.75     Mostly Cloudy
10:00 2.6 -2.8 68   30 17 24.1 99.76     Mostly Cloudy
11:00 3.4 -4.0 58   29 20 24.1 99.75     Mostly Cloudy
12:00 4.2 -4.3 54   28 19 24.1 99.73     Mostly Cloudy
13:00 4.2 -5.2 50   32 13 24.1 99.69     Mostly Cloudy
14:00 5.2 -4.8 48   30 22 24.1 99.69     Mainly Clear
15:00 5.4 -4.9 47   31 17 24.1 99.67     Mainly Clear
16:00 4.4 -4.7 52   31 15 24.1 99.66     Mainly Clear
17:00 3.4 -4.4 57   31 6 15.0 99.65      
18:00 -0.1 -3.4 78     0 15.0 99.68      
19:00 -1.3 -3.8 83     0 15.0 99.71      
20:00 -2.8 -4.7 87   12 6 15.0 99.70   -5  
21:00 -2.6 -4.6 86   11 4 15.0 99.72   -4  
22:00 -3.2 -4.9 88   9 4 15.0 99.73   -5  
23:00 -3.6 -5.3 88     0 15.0 99.72      

Notes on Data Quality.

Legend

  • E = Estimated
  • M = Missing
  • NA = Not Available*
  • [empty] = Indicates an unobserved value
Date modified: